Cortez, CO

6:18 PM MST on November 18, 2019 (GMT -0700)
Cortez Municipal

Weather History for KCEZ - September, 2019

Change the Weather History Date:

Monday, September 2, 2019

  Actual Average Record
Temperature  
Mean Temperature 72 °F 65 °F  
Max Temperature 94 °F 82 °F 94 °F (2019)
Min Temperature 49 °F 48 °F 41 °F (2010)
Degree Days  
Heating Degree Days 0 2  
Month to date heating degree days 0 3  
Since 1 July heating degree days 0 15  
Cooling Degree Days 7 2  
Month to date cooling degree days 13 4  
Year to date cooling degree days 493 413  
Growing Degree Days 22 (Base 50)    
Moisture  
Dew Point 43 °F    
Average Humidity 41    
Maximum Humidity 63    
Minimum Humidity 18    
Precipitation  
Precipitation 0.00 in 0.04 in 0.50 in (1999)
Month to date precipitation 0.00 0.09  
Year to date precipitation 9.78 8.53  
Sea Level Pressure  
Sea Level Pressure 30.01 in    
Wind  
Wind Speed 4 mph (East)    
Max Wind Speed 17 mph    
Max Gust Speed 23 mph    
Visibility 10 miles    
Events      
T = Trace of Precipitation, MM = Missing Value Source: NWS Daily Summary

Daily Weather History Graph

Daily Weather History Graph

Search for Another Location

Airport or City:

Astronomy

Sep. 02, 2019 Rise Set
Actual Time 6:45 AM MDT 7:42 PM MDT
Civil Twilight 6:19 AM MDT 8:08 PM MDT
Nautical Twilight 5:47 AM MDT 8:40 PM MDT
Astronomical Twilight 5:14 AM MDT 9:12 PM MDT
Moon 10:27 AM MDT (9/2) 10:10 PM MDT (9/2)
Length of Visible Light 13h 49m
Length of Day
12h 56m
Waxing Crescent, 16% of the Moon is Illuminated
Sep 2
Waxing Crescent
Sep 5
First Quarter
Sep 13
Full
Sep 21
Last Quarter
Sep 28
New

Hourly Weather History & Observations

Time (MDT) Temp. Dew Point Humidity Pressure Visibility Wind Dir Wind Speed Gust Speed Precip Events Conditions
12:53 AM 59.0 °F 39.0 °F 48% 29.99 in 10.0 mi Calm Calm - N/A   Clear
1:53 AM 57.9 °F 37.9 °F 47% 30.01 in 10.0 mi East 4.6 mph - N/A   Clear
2:53 AM 55.9 °F 37.9 °F 51% 30.03 in 10.0 mi East 4.6 mph - N/A   Clear
3:53 AM 55.9 °F 39.9 °F 55% 30.05 in 10.0 mi East 4.6 mph - N/A   Clear
4:53 AM 52.0 °F 39.9 °F 63% 30.06 in 10.0 mi East 3.5 mph - N/A   Clear
5:53 AM 51.1 °F 39.0 °F 63% 30.08 in 10.0 mi Calm Calm - N/A   Clear
6:53 AM 51.1 °F 39.9 °F 66% 30.10 in 10.0 mi Calm Calm - N/A   Clear
7:53 AM 59.0 °F 43.0 °F 55% 30.11 in 10.0 mi Calm Calm - N/A   Clear
9:53 AM 75.9 °F 46.0 °F 35% 30.09 in 10.0 mi Calm Calm - N/A   Clear
10:53 AM 82.0 °F 46.9 °F 29% 30.06 in 10.0 mi Variable 3.5 mph - N/A   Clear
11:53 AM 84.9 °F 46.9 °F 27% 30.04 in 10.0 mi WSW 4.6 mph - N/A   Clear
12:53 PM 88.0 °F 43.0 °F 21% 30.02 in 10.0 mi Variable 5.8 mph - N/A   Clear
1:53 PM 91.0 °F 42.1 °F 18% 29.99 in 10.0 mi Variable 3.5 mph - N/A   Clear
2:53 PM 91.9 °F 44.1 °F 19% 29.96 in 10.0 mi WSW 8.1 mph - N/A   Clear
3:53 PM 93.0 °F 46.0 °F 20% 29.93 in 10.0 mi South 11.5 mph - N/A   Clear
4:53 PM 86.0 °F 46.0 °F 25% 29.96 in 10.0 mi South 6.9 mph - N/A   Clear
5:53 PM 88.0 °F 42.1 °F 20% 29.95 in 10.0 mi ENE 6.9 mph - N/A   Clear
6:53 PM 86.0 °F 41.0 °F 20% 29.95 in 10.0 mi ENE 8.1 mph - N/A   Clear
7:53 PM 75.0 °F 45.0 °F 34% 29.96 in 10.0 mi NE 4.6 mph - N/A   Clear
8:53 PM 68.0 °F 44.1 °F 42% 29.98 in 10.0 mi ENE 5.8 mph - N/A   Clear
9:53 PM 66.0 °F 43.0 °F 43% 29.99 in 10.0 mi ENE 5.8 mph - N/A   Clear
10:53 PM 69.1 °F 42.1 °F 38% 29.99 in 10.0 mi Calm Calm - N/A   Clear
11:53 PM 63.0 °F 43.0 °F 48% 29.99 in 10.0 mi ENE 5.8 mph - N/A   Clear